Arcata, CA

6:55 AM PDT on April 29, 2017 (GMT -0700)
Arcata

Weather History for KACV - October, 2013

Change the Weather History Date:

Thursday, October 24, 2013

  Actual Average Record
Temperature  
Mean Temperature 48 °F -  
Max Temperature 54 °F 59 °F 73 °F (2014)
Min Temperature 44 °F 41 °F 34 °F (2001)
Degree Days  
Heating Degree Days 16    
Moisture  
Dew Point 46 °F    
Average Humidity 93    
Maximum Humidity 100    
Minimum Humidity 82    
Precipitation  
Precipitation 0.01 in - - ()
Sea Level Pressure  
Sea Level Pressure 30.06 in    
Wind  
Wind Speed 1 mph (NNE)    
Max Wind Speed 8 mph    
Max Gust Speed -    
Visibility 5 miles    
Events Fog    
Averages and records for this station are not official NWS values.
T = Trace of Precipitation, MM = Missing Value Source: NWS Daily Summary

Daily Weather History Graph

Daily Weather History Graph

Search for Another Location

Airport or City:

Trip Planner

Search our weather history database for the weather conditions in past years. The results will help you decide how hot, cold, wet, or windy it might be!

Date:

Astronomy

Oct. 24, 2013 Rise Set
Actual Time 7:38 AM PDT 6:22 PM PDT
Civil Twilight 7:10 AM PDT 6:50 PM PDT
Nautical Twilight 6:38 AM PDT 7:22 PM PDT
Astronomical Twilight 6:06 AM PDT 7:54 PM PDT
Moon 10:50 PM PDT (10/24) 12:44 PM PDT (10/24)
Length of Visible Light 11h 40m
Length of Day
10h 43m
Waning Gibbous, 70% of the Moon is Illuminated
Oct 24
Waning Gibbous
Oct 26
Last Quarter
Nov 3
New
Nov 9
First Quarter
Nov 17
Full

Hourly Weather History & Observations

Time (PDT) Temp. Windchill Dew Point Humidity Pressure Visibility Wind Dir Wind Speed Gust Speed Precip Events Conditions
12:35 AM 48.2 °F - 46.4 °F 93% 30.00 in 0.5 mi Calm Calm - N/A Fog Fog
12:53 AM 48.0 °F - 46.0 °F 93% 30.02 in 0.5 mi Calm Calm - N/A Fog Fog
1:53 AM 46.9 °F - 46.0 °F 97% 30.02 in 0.2 mi Calm Calm - N/A Fog Fog
2:11 AM 46.4 °F 45.2 °F 46.4 °F 100% 30.00 in 0.2 mi SE 3.5 mph - N/A Fog Fog
2:18 AM 46.4 °F - 46.4 °F 100% 30.00 in 0.5 mi Calm Calm - N/A Fog Fog
2:53 AM 46.9 °F - 45.0 °F 93% 30.03 in 1.0 mi Calm Calm - N/A   Mist
3:51 AM 46.4 °F - 44.6 °F 93% 30.01 in 2.0 mi Calm Calm - N/A   Overcast
3:53 AM 46.0 °F - 45.0 °F 96% 30.03 in 2.0 mi Calm Calm - N/A   Overcast
4:53 AM 46.0 °F 44.8 °F 45.0 °F 96% 30.02 in 2.0 mi ESE 3.5 mph - 0.01 in   Overcast
5:53 AM 46.0 °F - 44.1 °F 93% 30.02 in 1.8 mi Calm Calm - N/A   Overcast
6:20 AM 46.4 °F 44.3 °F 44.6 °F 93% 30.00 in 2.0 mi East 4.6 mph - N/A   Overcast
6:45 AM 44.6 °F 42.2 °F 44.6 °F 100% 30.00 in 1.8 mi East 4.6 mph - N/A   Overcast
6:53 AM 45.0 °F 42.6 °F 44.1 °F 97% 30.02 in 1.8 mi East 4.6 mph - N/A   Overcast
7:01 AM 44.6 °F - 44.6 °F 100% 30.00 in 2.0 mi Calm Calm - N/A   Overcast
7:34 AM 46.4 °F - 44.6 °F 93% 30.01 in 1.8 mi Calm Calm - N/A   Overcast
7:48 AM 46.4 °F - 44.6 °F 93% 30.01 in 2.0 mi Calm Calm - N/A   Overcast
7:53 AM 46.0 °F - 44.1 °F 93% 30.04 in 1.5 mi Calm Calm - N/A   Overcast
8:53 AM 46.0 °F - 45.0 °F 96% 30.08 in 1.8 mi Calm Calm - N/A   Overcast
9:02 AM 46.4 °F - 44.6 °F 93% 30.06 in 2.0 mi Calm Calm - N/A   Overcast
9:09 AM 46.4 °F - 46.4 °F 100% 30.06 in 1.8 mi Calm Calm - N/A   Overcast
9:20 AM 46.4 °F - 46.4 °F 100% 30.06 in 2.0 mi Calm Calm - N/A   Overcast
9:46 AM 46.4 °F - 46.4 °F 100% 30.06 in 3.0 mi Calm Calm - N/A   Overcast
9:53 AM 46.9 °F - 46.0 °F 97% 30.08 in 3.0 mi Calm Calm - N/A   Overcast
10:53 AM 48.0 °F - 46.0 °F 93% 30.08 in 8.0 mi Calm Calm - N/A   Overcast
11:53 AM 48.9 °F - 46.0 °F 90% 30.11 in 6.0 mi West 3.5 mph - N/A   Overcast
12:53 PM 50.0 °F - 46.9 °F 89% 30.11 in 10.0 mi NE 3.5 mph - N/A   Overcast
1:53 PM 52.0 °F - 46.9 °F 83% 30.10 in 10.0 mi Calm Calm - N/A   Overcast
2:38 PM 53.6 °F - 48.2 °F 82% 30.07 in 10.0 mi Calm Calm - N/A   Overcast
2:53 PM 53.1 °F - 48.0 °F 83% 30.08 in 10.0 mi Variable 3.5 mph - N/A   Overcast
3:53 PM 52.0 °F - 48.0 °F 86% 30.07 in 10.0 mi NW 6.9 mph - N/A   Overcast
4:31 PM 51.8 °F - 48.2 °F 88% 30.03 in 10.0 mi NW 3.5 mph - N/A   Mostly Cloudy
4:40 PM 51.8 °F - 48.2 °F 88% 30.03 in 10.0 mi NW 4.6 mph - N/A   Partly Cloudy
4:53 PM 51.1 °F - 46.9 °F 86% 30.05 in 10.0 mi NNW 4.6 mph - N/A   Partly Cloudy
5:27 PM 51.8 °F - 46.4 °F 82% 30.03 in 10.0 mi NNW 8.1 mph - N/A   Mostly Cloudy
5:53 PM 50.0 °F - 46.9 °F 89% 30.06 in 10.0 mi NW 3.5 mph - N/A   Overcast
6:53 PM 50.0 °F - 46.9 °F 89% 30.08 in 10.0 mi South 3.5 mph - N/A   Overcast
7:53 PM 50.0 °F - 46.9 °F 89% 30.12 in 10.0 mi NNW 5.8 mph - N/A   Overcast
8:53 PM 48.9 °F - 46.9 °F 93% 30.14 in 6.0 mi Calm Calm - N/A   Overcast
9:03 PM 48.2 °F - 46.4 °F 93% 30.12 in 5.0 mi Calm Calm - N/A   Overcast
9:19 PM 48.2 °F - 46.4 °F 93% 30.12 in 2.5 mi Calm Calm - N/A   Overcast
9:36 PM 48.2 °F - 46.4 °F 93% 30.12 in 4.0 mi Calm Calm - N/A   Overcast
9:53 PM 48.9 °F - 46.9 °F 93% 30.14 in 4.0 mi Calm Calm - N/A   Overcast
10:53 PM 48.9 °F - 48.0 °F 97% 30.17 in 7.0 mi Calm Calm - N/A   Overcast
11:25 PM 48.2 °F - 46.4 °F 93% 30.15 in 10.0 mi ESE 3.5 mph - N/A   Overcast
11:53 PM 48.9 °F - 46.9 °F 93% 30.17 in 9.0 mi Calm Calm - N/A   Overcast